ZHONGXING-12

Last updated on Tue Sep 16 2025 00:02:47 GMT+0000 (Coordinated Universal Time)

1 39017U 12067A 25258.60190935 -.00000223 00000+0 00000+0 0 9997 2 39017 0.0332 110.8721 0002596 78.0467 110.0701 1.00270769 46758
UTC large
Height (km)
Speed (km/s)
/
Latitude / Longitude
Inclination (degrees)
Orbital Period (minutes)
Azimuth
Elevation
Range (km)
Doppler Factor

Next 0 passes for location: London (51.5072 / 0.1276)

Sorry there are no passes over London.